| time (UTC) | temp C | wind direction | speed KPH | gust KPH | rain 1hr cm | rain 24hr cm | rain mn cm | humidity % | barometer mb |
| 20260507123231 | 18 | 257 | 6.4 | 19.3 | 0.00 | 0.05 | 0.05 | 50 | 1010.4 |
| 20260507122721 | 18 | 209 | 8.0 | 16.1 | 0.00 | 0.05 | 0.05 | 49 | 1010.4 |
| 20260507122243 | 18 | 236 | 4.8 | 11.3 | 0.00 | 0.05 | 0.05 | 52 | 1010.5 |
| 20260507121721 | 18 | 212 | 3.2 | 16.1 | 0.00 | 0.05 | 0.05 | 51 | 1010.5 |
| 20260507121242 | 18 | 220 | 6.4 | 16.1 | 0.00 | 0.05 | 0.05 | 51 | 1010.5 |
| 20260507120736 | 18 | 275 | 6.4 | 11.3 | 0.00 | 0.05 | 0.05 | 50 | 1010.5 |
| 20260507120227 | 18 | 252 | 6.4 | 11.3 | 0.00 | 0.05 | 0.05 | 49 | 1010.5 |
| 20260507115717 | 18 | 258 | 6.4 | 11.3 | 0.00 | 0.05 | 0.05 | 47 | 1010.5 |
| 20260507115237 | 18 | 238 | 4.8 | 11.3 | 0.00 | 0.05 | 0.05 | 48 | 1010.5 |
| 20260507114718 | 19 | 241 | 4.8 | 19.3 | 0.00 | 0.05 | 0.05 | 46 | 1010.6 |
| 20260507114245 | 19 | 238 | 3.2 | 19.3 | 0.00 | 0.05 | 0.05 | 45 | 1010.5 |
| 20260507113723 | 20 | 161 | 3.2 | 16.1 | 0.00 | 0.05 | 0.05 | 44 | 1010.5 |
| 20260507113223 | 20 | 219 | 4.8 | 16.1 | 0.00 | 0.05 | 0.05 | 43 | 1010.5 |
| 20260507112739 | 20 | 170 | 3.2 | 11.3 | 0.00 | 0.05 | 0.05 | 45 | 1010.6 |
| 20260507112230 | 20 | 200 | 6.4 | 16.1 | 0.00 | 0.05 | 0.05 | 44 | 1010.5 |
| 20260507111740 | 20 | 234 | 9.7 | 16.1 | 0.00 | 0.05 | 0.05 | 43 | 1010.6 |
| 20260507111225 | 20 | 188 | 1.6 | 16.1 | 0.00 | 0.05 | 0.05 | 42 | 1010.6 |
| 20260507110724 | 20 | 207 | 3.2 | 16.1 | 0.00 | 0.05 | 0.05 | 43 | 1010.6 |
| 20260507110233 | 20 | 186 | 4.8 | 9.7 | 0.00 | 0.05 | 0.05 | 45 | 1010.5 |
| 20260507105738 | 19 | 181 | 3.2 | 16.1 | 0.00 | 0.05 | 0.05 | 45 | 1010.6 |
| 20260507105230 | 19 | 252 | 8.0 | 16.1 | 0.00 | 0.05 | 0.05 | 46 | 1010.5 |
| 20260507104733 | 19 | 241 | 6.4 | 14.5 | 0.00 | 0.05 | 0.05 | 48 | 1010.6 |
| 20260507104234 | 18 | 205 | 1.6 | 4.8 | 0.00 | 0.05 | 0.05 | 50 | 1010.6 |
| 20260507103730 | 18 | 200 | 0.0 | 3.2 | 0.00 | 0.05 | 0.05 | 52 | 1010.6 |
| 20260507103223 | 18 | 195 | 0.0 | 4.8 | 0.00 | 0.05 | 0.05 | 52 | 1010.7 |
| 20260507102803 | 18 | 271 | 0.0 | 4.8 | 0.00 | 0.05 | 0.05 | 55 | 1010.7 |
| 20260507102306 | 17 | 257 | 0.0 | 4.8 | 0.00 | 0.05 | 0.05 | 55 | 1010.9 |
| 20260507101750 | 17 | 207 | 0.0 | 4.8 | 0.00 | 0.05 | 0.05 | 56 | 1010.9 |
| 20260507101227 | 17 | 245 | 1.6 | 6.4 | 0.00 | 0.05 | 0.05 | 57 | 1011.0 |
| 20260507100728 | 17 | 215 | 0.0 | 9.7 | 0.00 | 0.05 | 0.05 | 56 | 1011.0 |
| 20260507100241 | 18 | 239 | 3.2 | 11.3 | 0.00 | 0.05 | 0.05 | 55 | 1011.1 |
| 20260507095719 | 17 | 255 | 4.8 | 14.5 | 0.00 | 0.05 | 0.05 | 57 | 1011.1 |
| 20260507095216 | 17 | 227 | 3.2 | 14.5 | 0.00 | 0.05 | 0.05 | 59 | 1011.0 |
| 20260507094741 | 17 | 240 | 1.6 | 9.7 | 0.00 | 0.05 | 0.05 | 57 | 1011.0 |
| 20260507094223 | 17 | 234 | 4.8 | 16.1 | 0.00 | 0.05 | 0.05 | 60 | 1010.9 |
| 20260507093740 | 16 | 256 | 3.2 | 16.1 | 0.00 | 0.05 | 0.05 | 61 | 1010.8 |
| 20260507093224 | 16 | 252 | 1.6 | 3.2 | 0.00 | 0.05 | 0.05 | 64 | 1010.9 |
| 20260507092743 | 16 | 242 | 0.0 | 0.0 | 0.00 | 0.05 | 0.05 | 62 | 1010.8 |
| 20260507092220 | 15 | 237 | 0.0 | 6.4 | 0.00 | 0.05 | 0.05 | 62 | 1010.9 |
| 20260507091722 | 15 | 242 | 0.0 | 9.7 | 0.00 | 0.05 | 0.05 | 62 | 1011.0 |
| 20260507091230 | 15 | 234 | 1.6 | 9.7 | 0.00 | 0.05 | 0.05 | 64 | 1011.0 |
| 20260507090721 | 15 | 236 | 3.2 | 9.7 | 0.03 | 0.05 | 0.05 | 62 | 1011.0 |
| 20260507090229 | 15 | 237 | 1.6 | 8.0 | 0.03 | 0.05 | 0.05 | 67 | 1011.0 |
| 20260507085726 | 15 | 239 | 3.2 | 11.3 | 0.05 | 0.05 | 0.05 | 66 | 1011.1 |
| 20260507085239 | 15 | 253 | 4.8 | 11.3 | 0.05 | 0.05 | 0.05 | 69 | 1011.1 |
| 20260507084734 | 14 | 236 | 4.8 | 8.0 | 0.05 | 0.05 | 0.05 | 72 | 1011.0 |
| 20260507084224 | 13 | 240 | 1.6 | 4.8 | 0.05 | 0.05 | 0.05 | 76 | 1010.9 |
| 20260507083724 | 13 | 188 | 3.2 | 3.2 | 0.05 | 0.05 | 0.05 | 76 | 1011.0 |
| 20260507083227 | 13 | 260 | 0.0 | 0.0 | 0.05 | 0.05 | 0.05 | 83 | 1011.1 |
| 20260507082729 | 13 | 260 | 0.0 | 0.0 | 0.05 | 0.05 | 0.05 | 84 | 1011.2 |
| 20260507082230 | 13 | 260 | 0.0 | 0.0 | 0.05 | 0.05 | 0.05 | 85 | 1011.1 |
| 20260507081724 | 12 | 260 | 0.0 | 0.0 | 0.05 | 0.05 | 0.05 | 83 | 1011.2 |
| 20260507081254 | 13 | 260 | 0.0 | 0.0 | 0.05 | 0.05 | 0.05 | 84 | 1011.0 |
| 20260507080736 | 13 | 260 | 0.0 | 0.0 | 0.05 | 0.05 | 0.05 | 82 | 1011.1 |
| 20260507080235 | 13 | 260 | 0.0 | 0.0 | 0.05 | 0.05 | 0.05 | 79 | 1011.0 |
| 20260507075733 | 13 | 260 | 0.0 | 0.0 | 0.00 | 0.00 | 0.00 | 77 | 1011.2 |
| 20260507075236 | 13 | 260 | 0.0 | 0.0 | 0.00 | 0.00 | 0.00 | 76 | 1011.1 |
| 20260507074731 | 13 | 260 | 0.0 | 0.0 | 0.00 | 0.00 | 0.00 | 76 | 1011.1 |
| 20260507074221 | 13 | 260 | 0.0 | 0.0 | 0.00 | 0.00 | 0.00 | 77 | 1011.1 |
| 20260507073724 | 13 | 260 | 0.0 | 0.0 | 0.00 | 0.00 | 0.00 | 77 | 1011.0 |
| 20260507073220 | 12 | 260 | 0.0 | 0.0 | 0.00 | 0.00 | 0.00 | 77 | 1011.0 |
| 20260507072725 | 12 | 260 | 0.0 | 0.0 | 0.00 | 0.00 | 0.00 | 78 | 1011.0 |
| 20260507072228 | 12 | 260 | 0.0 | 0.0 | 0.00 | 0.00 | 0.00 | 81 | 1010.9 |
| 20260507071723 | 12 | 260 | 0.0 | 0.0 | 0.00 | 0.00 | 0.00 | 83 | 1010.6 |
| 20260507071226 | 11 | 260 | 0.0 | 0.0 | 0.00 | 0.00 | 0.00 | 84 | 1010.6 |
| 20260507070720 | 11 | 260 | 0.0 | 0.0 | 0.00 | 0.00 | 0.00 | 84 | 1010.5 |
| 20260507070229 | 11 | 260 | 0.0 | 0.0 | 0.00 | 0.00 | 0.00 | 84 | 1010.6 |
| 20260507065736 | 10 | 260 | 0.0 | 0.0 | 0.00 | 0.00 | 0.00 | 83 | 1010.5 |
| 20260507065241 | 10 | 260 | 0.0 | 0.0 | 0.00 | 0.00 | 0.00 | 82 | 1010.5 |
| 20260507064755 | 10 | 260 | 0.0 | 0.0 | 0.00 | 0.00 | 0.00 | 82 | 1010.5 |
| 20260507064226 | 10 | 260 | 0.0 | 0.0 | 0.00 | 0.00 | 0.00 | 82 | 1010.5 |
| 20260507063724 | 10 | 260 | 0.0 | 0.0 | 0.00 | 0.00 | 0.00 | 82 | 1010.6 |
| 20260507063227 | 10 | 260 | 0.0 | 0.0 | 0.00 | 0.00 | 0.00 | 81 | 1010.6 |
| 20260507062739 | 10 | 260 | 0.0 | 0.0 | 0.00 | 0.00 | 0.00 | 81 | 1010.5 |
| 20260507062221 | 10 | 260 | 0.0 | 0.0 | 0.00 | 0.00 | 0.00 | 81 | 1010.5 |
| 20260507061734 | 10 | 260 | 0.0 | 0.0 | 0.00 | 0.00 | 0.00 | 81 | 1010.4 |
| 20260507061238 | 10 | 260 | 0.0 | 0.0 | 0.00 | 0.00 | 0.00 | 81 | 1010.3 |
| 20260507060747 | 9 | 260 | 0.0 | 0.0 | 0.00 | 0.00 | 0.00 | 82 | 1010.2 |
| 20260507060224 | 9 | 260 | 0.0 | 0.0 | 0.00 | 0.00 | 0.00 | 81 | 1010.2 |
| 20260507055724 | 9 | 260 | 0.0 | 0.0 | 0.00 | 0.00 | 0.00 | 81 | 1010.2 |
| 20260507055224 | 9 | 260 | 0.0 | 0.0 | 0.00 | 0.00 | 0.00 | 81 | 1010.2 |
| 20260507054737 | 9 | 260 | 0.0 | 0.0 | 0.00 | 0.00 | 0.00 | 82 | 1010.0 |
| 20260507054223 | 9 | 260 | 0.0 | 0.0 | 0.00 | 0.00 | 0.00 | 82 | 1010.0 |
| 20260507053727 | 9 | 260 | 0.0 | 0.0 | 0.00 | 0.00 | 0.00 | 81 | 1009.9 |
| 20260507053228 | 9 | 260 | 0.0 | 0.0 | 0.00 | 0.00 | 0.00 | 81 | 1009.9 |
| 20260507052742 | 9 | 260 | 0.0 | 0.0 | 0.00 | 0.00 | 0.00 | 81 | 1009.9 |
| 20260507052244 | 9 | 260 | 0.0 | 0.0 | 0.00 | 0.00 | 0.00 | 81 | 1009.9 |
| 20260507051721 | 9 | 260 | 0.0 | 0.0 | 0.00 | 0.00 | 0.00 | 81 | 1009.8 |
| 20260507051221 | 9 | 260 | 0.0 | 0.0 | 0.00 | 0.00 | 0.00 | 81 | 1009.7 |
| 20260507050716 | 9 | 260 | 0.0 | 0.0 | 0.00 | 0.00 | 0.00 | 80 | 1009.8 |
| 20260507050220 | 9 | 260 | 0.0 | 0.0 | 0.00 | 0.00 | 0.00 | 80 | 1009.8 |
| 20260507045726 | 9 | 260 | 0.0 | 0.0 | 0.00 | 0.00 | 0.00 | 79 | 1009.7 |
| 20260507045243 | 10 | 260 | 0.0 | 0.0 | 0.00 | 0.00 | 0.00 | 79 | 1009.6 |
| 20260507044722 | 10 | 260 | 0.0 | 0.0 | 0.00 | 0.00 | 0.00 | 79 | 1009.6 |
| 20260507044234 | 10 | 260 | 0.0 | 0.0 | 0.00 | 0.00 | 0.00 | 79 | 1009.6 |
| 20260507043730 | 10 | 260 | 0.0 | 0.0 | 0.00 | 0.00 | 0.00 | 79 | 1009.6 |
| 20260507043233 | 10 | 260 | 0.0 | 0.0 | 0.00 | 0.00 | 0.00 | 79 | 1009.6 |
| 20260507042720 | 10 | 260 | 0.0 | 0.0 | 0.00 | 0.00 | 0.00 | 79 | 1009.6 |
| 20260507042222 | 10 | 260 | 0.0 | 0.0 | 0.00 | 0.00 | 0.00 | 80 | 1009.6 |
| 20260507041743 | 9 | 260 | 0.0 | 0.0 | 0.00 | 0.00 | 0.00 | 80 | 1009.6 |
| 20260507041216 | 9 | 260 | 0.0 | 0.0 | 0.00 | 0.00 | 0.00 | 80 | 1009.5 |
| 20260507040726 | 9 | 260 | 0.0 | 0.0 | 0.00 | 0.00 | 0.00 | 80 | 1009.4 |
| 20260507040225 | 8 | 260 | 0.0 | 0.0 | 0.00 | 0.00 | 0.00 | 79 | 1009.5 |
| 20260507035733 | 8 | 260 | 0.0 | 0.0 | 0.00 | 0.00 | 0.00 | 79 | 1009.5 |
| 20260507035235 | 8 | 260 | 0.0 | 0.0 | 0.00 | 0.00 | 0.00 | 78 | 1009.6 |
| 20260507034800 | 8 | 260 | 0.0 | 0.0 | 0.00 | 0.00 | 0.00 | 78 | 1009.6 |
| 20260507034216 | 9 | 260 | 0.0 | 0.0 | 0.00 | 0.00 | 0.00 | 78 | 1009.6 |
| 20260507033742 | 9 | 260 | 0.0 | 0.0 | 0.00 | 0.00 | 0.00 | 78 | 1009.6 |
| 20260507033229 | 9 | 260 | 0.0 | 0.0 | 0.00 | 0.00 | 0.00 | 77 | 1009.6 |
| 20260507032803 | 9 | 260 | 0.0 | 0.0 | 0.00 | 0.00 | 0.00 | 77 | 1009.7 |
| 20260507032221 | 9 | 260 | 0.0 | 0.0 | 0.00 | 0.00 | 0.00 | 77 | 1009.6 |
| 20260507031743 | 9 | 260 | 0.0 | 0.0 | 0.00 | 0.00 | 0.00 | 76 | 1009.7 |
| 20260507031219 | 9 | 260 | 0.0 | 0.0 | 0.00 | 0.00 | 0.00 | 76 | 1009.6 |
| 20260507030723 | 10 | 260 | 0.0 | 0.0 | 0.00 | 0.00 | 0.00 | 75 | 1009.6 |
| 20260507030224 | 10 | 260 | 0.0 | 0.0 | 0.00 | 0.00 | 0.00 | 75 | 1009.6 |
| 20260507025719 | 10 | 260 | 0.0 | 0.0 | 0.00 | 0.00 | 0.00 | 75 | 1009.7 |
| 20260507025219 | 10 | 260 | 0.0 | 0.0 | 0.00 | 0.00 | 0.00 | 74 | 1009.8 |
| 20260507024725 | 10 | 260 | 0.0 | 0.0 | 0.00 | 0.00 | 0.00 | 74 | 1009.7 |
| 20260507024218 | 10 | 260 | 0.0 | 0.0 | 0.00 | 0.00 | 0.00 | 74 | 1009.7 |
| 20260507023727 | 10 | 260 | 0.0 | 0.0 | 0.00 | 0.00 | 0.00 | 74 | 1009.7 |
| 20260507023237 | 10 | 260 | 0.0 | 0.0 | 0.00 | 0.00 | 0.00 | 73 | 1009.6 |
| 20260507022717 | 10 | 260 | 0.0 | 0.0 | 0.00 | 0.00 | 0.00 | 73 | 1009.6 |
| 20260507022241 | 10 | 260 | 0.0 | 0.0 | 0.00 | 0.00 | 0.00 | 72 | 1009.6 |
| 20260507021719 | 10 | 260 | 0.0 | 0.0 | 0.00 | 0.00 | 0.00 | 72 | 1009.6 |
| 20260507021235 | 10 | 260 | 0.0 | 0.0 | 0.00 | 0.00 | 0.00 | 71 | 1009.5 |
| 20260507020738 | 10 | 260 | 0.0 | 0.0 | 0.00 | 0.00 | 0.00 | 71 | 1009.5 |
| 20260507020239 | 11 | 260 | 0.0 | 0.0 | 0.00 | 0.00 | 0.00 | 70 | 1009.6 |
| 20260507015737 | 11 | 260 | 0.0 | 0.0 | 0.00 | 0.00 | 0.00 | 70 | 1009.6 |
| 20260507015240 | 11 | 260 | 0.0 | 0.0 | 0.00 | 0.00 | 0.00 | 70 | 1009.6 |
| 20260507014736 | 11 | 260 | 0.0 | 0.0 | 0.00 | 0.00 | 0.00 | 69 | 1009.8 |
| 20260507014255 | 10 | 260 | 0.0 | 0.0 | 0.00 | 0.00 | 0.00 | 68 | 1009.8 |
| 20260507013744 | 10 | 260 | 0.0 | 0.0 | 0.00 | 0.00 | 0.00 | 70 | 1009.8 |
| 20260507013235 | 10 | 260 | 0.0 | 0.0 | 0.00 | 0.00 | 0.00 | 71 | 1009.8 |
| 20260507012734 | 10 | 260 | 0.0 | 0.0 | 0.00 | 0.00 | 0.00 | 73 | 1009.8 |
| 20260507012226 | 10 | 260 | 0.0 | 0.0 | 0.00 | 0.00 | 0.00 | 74 | 1009.8 |
| 20260507011737 | 10 | 260 | 0.0 | 0.0 | 0.00 | 0.00 | 0.00 | 74 | 1009.7 |
| 20260507011227 | 10 | 260 | 0.0 | 0.0 | 0.00 | 0.00 | 0.00 | 74 | 1009.8 |
| 20260507010721 | 10 | 260 | 0.0 | 0.0 | 0.00 | 0.00 | 0.00 | 74 | 1009.8 |
| 20260507010241 | 10 | 260 | 0.0 | 0.0 | 0.00 | 0.00 | 0.00 | 74 | 1009.9 |
| 20260507005735 | 10 | 260 | 0.0 | 0.0 | 0.00 | 0.00 | 0.00 | 75 | 1009.9 |
| 20260507005239 | 10 | 260 | 0.0 | 0.0 | 0.00 | 0.00 | 0.00 | 75 | 1010.0 |
| 20260507004721 | 9 | 260 | 0.0 | 0.0 | 0.00 | 0.00 | 0.00 | 75 | 1010.0 |
| 20260507004235 | 9 | 260 | 0.0 | 0.0 | 0.00 | 0.00 | 0.00 | 75 | 1010.0 |
| 20260507003756 | 9 | 260 | 0.0 | 0.0 | 0.00 | 0.00 | 0.00 | 75 | 1010.1 |
| 20260507003217 | 9 | 260 | 0.0 | 0.0 | 0.00 | 0.00 | 0.00 | 74 | 1010.0 |
| 20260507002733 | 9 | 260 | 0.0 | 0.0 | 0.00 | 0.00 | 0.00 | 74 | 1010.1 |
| 20260507002218 | 9 | 260 | 0.0 | 0.0 | 0.00 | 0.00 | 0.00 | 74 | 1010.1 |
| 20260507001725 | 9 | 260 | 0.0 | 0.0 | 0.00 | 0.00 | 0.00 | 74 | 1010.1 |
| 20260507001250 | 10 | 260 | 0.0 | 0.0 | 0.00 | 0.00 | 0.00 | 74 | 1010.1 |
| 20260507000723 | 10 | 260 | 0.0 | 0.0 | 0.00 | 0.00 | 0.00 | 73 | 1010.2 |
| 20260507000222 | 10 | 260 | 0.0 | 0.0 | 0.00 | 0.00 | 0.00 | 73 | 1010.2 |
| 20260506235723 | 10 | 260 | 0.0 | 0.0 | 0.00 | 0.00 | 0.00 | 72 | 1010.1 |
| 20260506235245 | 10 | 260 | 0.0 | 0.0 | 0.00 | 0.00 | 0.00 | 73 | 1010.2 |
| 20260506234731 | 10 | 260 | 0.0 | 0.0 | 0.00 | 0.00 | 0.00 | 72 | 1010.2 |
| 20260506234232 | 10 | 260 | 0.0 | 0.0 | 0.00 | 0.00 | 0.00 | 72 | 1010.2 |
| 20260506233756 | 10 | 260 | 0.0 | 0.0 | 0.00 | 0.00 | 0.00 | 72 | 1010.2 |
| 20260506233304 | 10 | 260 | 0.0 | 0.0 | 0.00 | 0.00 | 0.00 | 71 | 1010.2 |
| 20260506232730 | 10 | 260 | 0.0 | 0.0 | 0.00 | 0.00 | 0.00 | 71 | 1010.1 |
| 20260506232221 | 10 | 260 | 0.0 | 0.0 | 0.00 | 0.00 | 0.00 | 71 | 1010.1 |
| 20260506231752 | 10 | 260 | 0.0 | 0.0 | 0.00 | 0.00 | 0.00 | 70 | 1010.1 |
| 20260506231231 | 10 | 260 | 0.0 | 0.0 | 0.00 | 0.00 | 0.00 | 70 | 1010.1 |
| 20260506230726 | 10 | 260 | 0.0 | 0.0 | 0.00 | 0.00 | 0.00 | 70 | 1010.1 |
| 20260506230229 | 10 | 260 | 0.0 | 0.0 | 0.00 | 0.00 | 0.00 | 70 | 1010.2 |
| 20260506225731 | 10 | 260 | 0.0 | 0.0 | 0.00 | 0.00 | 0.00 | 69 | 1010.2 |
| 20260506225250 | 10 | 260 | 0.0 | 0.0 | 0.00 | 0.00 | 0.00 | 69 | 1010.2 |
| 20260506224740 | 11 | 260 | 0.0 | 0.0 | 0.00 | 0.00 | 0.00 | 69 | 1010.1 |
| 20260506224238 | 11 | 260 | 0.0 | 0.0 | 0.00 | 0.00 | 0.00 | 69 | 1010.1 |
| 20260506223803 | 11 | 260 | 0.0 | 0.0 | 0.00 | 0.00 | 0.00 | 68 | 1010.0 |
| 20260506223221 | 11 | 260 | 0.0 | 0.0 | 0.00 | 0.00 | 0.00 | 68 | 1010.1 |
| 20260506222737 | 11 | 260 | 0.0 | 0.0 | 0.00 | 0.00 | 0.00 | 68 | 1010.1 |
| 20260506222305 | 11 | 260 | 0.0 | 0.0 | 0.00 | 0.00 | 0.00 | 68 | 1010.1 |
| 20260506221728 | 11 | 260 | 0.0 | 0.0 | 0.00 | 0.00 | 0.00 | 68 | 1010.0 |
| 20260506221234 | 11 | 260 | 0.0 | 0.0 | 0.00 | 0.00 | 0.00 | 67 | 1010.1 |
| 20260506220738 | 11 | 260 | 0.0 | 0.0 | 0.00 | 0.00 | 0.00 | 67 | 1010.1 |
| 20260506220223 | 11 | 260 | 0.0 | 0.0 | 0.00 | 0.00 | 0.00 | 66 | 1010.1 |
| 20260506215745 | 11 | 260 | 0.0 | 0.0 | 0.00 | 0.00 | 0.00 | 65 | 1010.1 |
| 20260506215247 | 11 | 260 | 0.0 | 0.0 | 0.00 | 0.00 | 0.00 | 64 | 1010.2 |
| 20260506214732 | 12 | 260 | 0.0 | 0.0 | 0.00 | 0.00 | 0.00 | 65 | 1010.1 |
| 20260506214225 | 12 | 260 | 0.0 | 0.0 | 0.00 | 0.00 | 0.00 | 65 | 1010.2 |
| 20260506213732 | 12 | 260 | 0.0 | 0.0 | 0.00 | 0.00 | 0.00 | 64 | 1010.2 |
| 20260506213225 | 12 | 260 | 0.0 | 0.0 | 0.00 | 0.00 | 0.00 | 64 | 1010.2 |
| 20260506212731 | 12 | 260 | 0.0 | 0.0 | 0.00 | 0.00 | 0.00 | 63 | 1010.2 |
| 20260506212233 | 12 | 260 | 0.0 | 0.0 | 0.00 | 0.00 | 0.00 | 63 | 1010.2 |
| 20260506211728 | 12 | 260 | 0.0 | 0.0 | 0.00 | 0.00 | 0.00 | 62 | 1010.3 |
| 20260506211226 | 12 | 260 | 0.0 | 0.0 | 0.00 | 0.00 | 0.00 | 62 | 1010.3 |
| 20260506210721 | 12 | 260 | 0.0 | 0.0 | 0.00 | 0.00 | 0.00 | 61 | 1010.2 |
| 20260506210226 | 13 | 260 | 0.0 | 0.0 | 0.00 | 0.00 | 0.00 | 61 | 1010.1 |
| 20260506205729 | 13 | 260 | 0.0 | 0.0 | 0.00 | 0.00 | 0.00 | 61 | 1010.1 |
| 20260506205249 | 13 | 260 | 0.0 | 0.0 | 0.00 | 0.00 | 0.00 | 60 | 1010.1 |
| 20260506204723 | 13 | 260 | 0.0 | 0.0 | 0.00 | 0.00 | 0.00 | 60 | 1010.0 |
| 20260506204225 | 13 | 260 | 0.0 | 0.0 | 0.00 | 0.00 | 0.00 | 60 | 1010.0 |
| 20260506203728 | 13 | 260 | 0.0 | 0.0 | 0.00 | 0.00 | 0.00 | 59 | 1009.9 |
| 20260506203226 | 14 | 260 | 0.0 | 0.0 | 0.00 | 0.00 | 0.00 | 58 | 1009.9 |
| 20260506202732 | 14 | 260 | 0.0 | 0.0 | 0.00 | 0.00 | 0.00 | 57 | 1009.8 |
| 20260506202235 | 14 | 260 | 0.0 | 0.0 | 0.00 | 0.00 | 0.00 | 56 | 1009.9 |
| 20260506201732 | 15 | 260 | 0.0 | 0.0 | 0.00 | 0.00 | 0.00 | 55 | 1009.9 |
| 20260506201224 | 15 | 260 | 0.0 | 0.0 | 0.00 | 0.00 | 0.00 | 55 | 1009.8 |
| 20260506200728 | 15 | 260 | 0.0 | 0.0 | 0.00 | 0.00 | 0.00 | 52 | 1009.8 |
| 20260506200224 | 15 | 260 | 0.0 | 0.0 | 0.00 | 0.00 | 0.00 | 52 | 1009.8 |
| 20260506195726 | 16 | 260 | 0.0 | 0.0 | 0.00 | 0.00 | 0.00 | 51 | 1009.7 |
| 20260506195236 | 16 | 260 | 0.0 | 0.0 | 0.00 | 0.00 | 0.00 | 50 | 1009.7 |
| 20260506194730 | 16 | 260 | 0.0 | 0.0 | 0.00 | 0.00 | 0.00 | 49 | 1009.6 |
| 20260506194215 | 16 | 260 | 0.0 | 0.0 | 0.00 | 0.00 | 0.00 | 48 | 1009.6 |
| 20260506193739 | 17 | 260 | 0.0 | 0.0 | 0.00 | 0.00 | 0.00 | 46 | 1009.6 |
| 20260506193220 | 17 | 260 | 0.0 | 0.0 | 0.00 | 0.00 | 0.00 | 45 | 1009.6 |
| 20260506192742 | 17 | 260 | 0.0 | 0.0 | 0.00 | 0.00 | 0.00 | 43 | 1009.6 |
| 20260506192229 | 18 | 260 | 0.0 | 0.0 | 0.00 | 0.00 | 0.00 | 43 | 1009.6 |
| 20260506191722 | 18 | 260 | 0.0 | 0.0 | 0.00 | 0.00 | 0.00 | 42 | 1009.5 |
| 20260506191253 | 18 | 260 | 0.0 | 0.0 | 0.00 | 0.00 | 0.00 | 41 | 1009.5 |
| 20260506190740 | 18 | 260 | 0.0 | 0.0 | 0.00 | 0.00 | 0.00 | 40 | 1009.4 |
| 20260506190237 | 19 | 260 | 0.0 | 0.0 | 0.00 | 0.00 | 0.00 | 38 | 1009.5 |
| 20260506185735 | 19 | 260 | 0.0 | 0.0 | 0.00 | 0.00 | 0.00 | 38 | 1009.4 |
| 20260506185252 | 19 | 260 | 0.0 | 1.6 | 0.00 | 0.00 | 0.00 | 37 | 1009.5 |
| 20260506184738 | 20 | 260 | 0.0 | 1.6 | 0.00 | 0.00 | 0.00 | 36 | 1009.5 |
| 20260506184224 | 20 | 260 | 0.0 | 1.6 | 0.00 | 0.00 | 0.00 | 35 | 1009.5 |
| 20260506183746 | 20 | 260 | 0.0 | 1.6 | 0.00 | 0.00 | 0.00 | 33 | 1009.5 |
| 20260506183222 | 20 | 260 | 0.0 | 0.0 | 0.00 | 0.00 | 0.00 | 33 | 1009.5 |
| 20260506182732 | 21 | 260 | 0.0 | 0.0 | 0.00 | 0.00 | 0.00 | 32 | 1009.5 |
| 20260506182225 | 21 | 260 | 0.0 | 1.6 | 0.00 | 0.00 | 0.00 | 32 | 1009.4 |
| 20260506181721 | 21 | 260 | 0.0 | 1.6 | 0.00 | 0.00 | 0.00 | 31 | 1009.4 |
| 20260506181253 | 21 | 260 | 0.0 | 3.2 | 0.00 | 0.00 | 0.00 | 32 | 1009.4 |
| 20260506180735 | 21 | 260 | 0.0 | 3.2 | 0.00 | 0.00 | 0.00 | 31 | 1009.4 |
| 20260506180215 | 21 | 260 | 1.6 | 3.2 | 0.00 | 0.00 | 0.00 | 31 | 1009.5 |
| 20260506175740 | 21 | 254 | 0.0 | 3.2 | 0.00 | 0.00 | 0.00 | 30 | 1009.4 |
| 20260506175223 | 21 | 253 | 0.0 | 3.2 | 0.00 | 0.00 | 0.00 | 31 | 1009.5 |
| 20260506174741 | 21 | 244 | 0.0 | 3.2 | 0.00 | 0.00 | 0.00 | 31 | 1009.6 |
| 20260506174217 | 21 | 240 | 0.0 | 4.8 | 0.00 | 0.00 | 0.00 | 30 | 1009.5 |
| 20260506173727 | 21 | 240 | 0.0 | 4.8 | 0.00 | 0.00 | 0.00 | 30 | 1009.5 |
| 20260506173244 | 22 | 245 | 1.6 | 4.8 | 0.00 | 0.00 | 0.00 | 30 | 1009.5 |
| 20260506172738 | 22 | 239 | 1.6 | 4.8 | 0.00 | 0.00 | 0.00 | 31 | 1009.6 |
| 20260506172216 | 22 | 239 | 1.6 | 8.0 | 0.00 | 0.00 | 0.00 | 30 | 1009.5 |
| 20260506171741 | 22 | 240 | 1.6 | 8.0 | 0.00 | 0.00 | 0.00 | 31 | 1009.6 |
| 20260506171259 | 22 | 244 | 1.6 | 4.8 | 0.00 | 0.00 | 0.00 | 30 | 1009.5 |
| 20260506170726 | 22 | 228 | 0.0 | 1.6 | 0.00 | 0.00 | 0.00 | 29 | 1009.5 |
| 20260506170227 | 22 | 239 | 1.6 | 1.6 | 0.00 | 0.00 | 0.00 | 30 | 1009.5 |
| 20260506165717 | 22 | 219 | 0.0 | 0.0 | 0.00 | 0.00 | 0.00 | 27 | 1009.6 |
| 20260506165220 | 22 | 232 | 0.0 | 4.8 | 0.00 | 0.00 | 0.00 | 28 | 1009.6 |
| 20260506164723 | 22 | 232 | 0.0 | 4.8 | 0.00 | 0.00 | 0.00 | 29 | 1009.6 |
| 20260506164242 | 22 | 229 | 0.0 | 1.6 | 0.00 | 0.00 | 0.00 | 29 | 1009.7 |
| 20260506163724 | 22 | 202 | 0.0 | 1.6 | 0.00 | 0.00 | 0.00 | 29 | 1009.7 |
| 20260506163236 | 22 | 248 | 0.0 | 1.6 | 0.00 | 0.00 | 0.00 | 28 | 1009.8 |
| 20260506162717 | 22 | 179 | 0.0 | 1.6 | 0.00 | 0.00 | 0.00 | 28 | 1009.9 |
| 20260506162250 | 22 | 104 | 0.0 | 1.6 | 0.00 | 0.00 | 0.00 | 29 | 1009.8 |
| 20260506161737 | 21 | 159 | 0.0 | 1.6 | 0.00 | 0.00 | 0.00 | 29 | 1009.9 |
| 20260506161224 | 21 | 143 | 0.0 | 1.6 | 0.00 | 0.00 | 0.00 | 29 | 1009.9 |
| 20260506160733 | 21 | 105 | 0.0 | 1.6 | 0.00 | 0.00 | 0.00 | 30 | 1010.0 |
| 20260506160246 | 21 | 44 | 0.0 | 1.6 | 0.00 | 0.00 | 0.00 | 30 | 1009.9 |
| 20260506155741 | 20 | 44 | 0.0 | 1.6 | 0.00 | 0.00 | 0.00 | 32 | 1010.0 |
| 20260506155250 | 20 | 44 | 0.0 | 1.6 | 0.00 | 0.00 | 0.00 | 31 | 1010.0 |
| 20260506154736 | 20 | 45 | 0.0 | 1.6 | 0.00 | 0.00 | 0.00 | 32 | 1010.1 |
| 20260506154225 | 20 | 44 | 0.0 | 1.6 | 0.00 | 0.00 | 0.00 | 31 | 1010.1 |
| 20260506153738 | 20 | 43 | 0.0 | 1.6 | 0.00 | 0.00 | 0.00 | 31 | 1010.1 |
| 20260506153219 | 20 | 43 | 0.0 | 1.6 | 0.00 | 0.00 | 0.00 | 31 | 1010.1 |
| 20260506152719 | 20 | 48 | 0.0 | 4.8 | 0.00 | 0.00 | 0.00 | 30 | 1010.1 |
| 20260506152222 | 20 | 47 | 0.0 | 4.8 | 0.00 | 0.00 | 0.00 | 30 | 1009.3 |
| 20260506151732 | 21 | 269 | 0.0 | 4.8 | 0.00 | 0.00 | 0.00 | 30 | 1009.3 |
| 20260506151247 | 21 | 269 | 0.0 | 4.8 | 0.00 | 0.00 | 0.00 | 31 | 1009.3 |
| 20260506150733 | 21 | 225 | 0.0 | 0.0 | 0.00 | 0.00 | 0.00 | 30 | 1009.4 |
| 20260506150224 | 21 | 265 | 0.0 | 0.0 | 0.00 | 0.00 | 0.00 | 30 | 1009.4 |
| 20260506145722 | 20 | 250 | 0.0 | 0.0 | 0.00 | 0.00 | 0.00 | 32 | 1009.7 |
| 20260506145237 | 20 | 250 | 0.0 | 1.6 | 0.00 | 0.00 | 0.00 | 31 | 1009.7 |
| 20260506144715 | 20 | 250 | 0.0 | 3.2 | 0.00 | 0.00 | 0.00 | 31 | 1009.8 |
| 20260506144241 | 20 | 250 | 0.0 | 3.2 | 0.00 | 0.00 | 0.00 | 31 | 1009.9 |
| 20260506143719 | 20 | 250 | 0.0 | 3.2 | 0.00 | 0.00 | 0.00 | 33 | 1009.9 |
| 20260506143215 | 20 | 251 | 1.6 | 8.0 | 0.00 | 0.00 | 0.00 | 32 | 1009.9 |
| 20260506142726 | 21 | 252 | 1.6 | 8.0 | 0.00 | 0.00 | 0.00 | 31 | 1009.9 |
| 20260506142216 | 21 | 215 | 1.6 | 4.8 | 0.00 | 0.00 | 0.00 | 29 | 1009.9 |
| 20260506141717 | 21 | 227 | 0.0 | 1.6 | 0.00 | 0.00 | 0.00 | 30 | 1010.0 |
| 20260506141227 | 21 | 192 | 0.0 | 1.6 | 0.00 | 0.00 | 0.00 | 30 | 1010.2 |
| 20260506140744 | 21 | 169 | 0.0 | 1.6 | 0.00 | 0.00 | 0.00 | 31 | 1010.3 |
| 20260506140231 | 22 | 167 | 0.0 | 1.6 | 0.00 | 0.00 | 0.00 | 31 | 1010.4 |
| 20260506135743 | 22 | 156 | 0.0 | 1.6 | 0.00 | 0.00 | 0.00 | 31 | 1010.4 |
| 20260506135234 | 22 | 42 | 0.0 | 4.8 | 0.00 | 0.00 | 0.00 | 29 | 1010.4 |
| 20260506134729 | 22 | 161 | 0.0 | 4.8 | 0.00 | 0.00 | 0.00 | 30 | 1010.4 |
| 20260506134222 | 21 | 62 | 1.6 | 4.8 | 0.00 | 0.00 | 0.00 | 32 | 1010.4 |
| 20260506133743 | 21 | 50 | 0.0 | 1.6 | 0.00 | 0.00 | 0.00 | 32 | 1010.6 |
| 20260506133219 | 21 | 65 | 1.6 | 3.2 | 0.00 | 0.00 | 0.00 | 32 | 1010.7 |
| 20260506132723 | 21 | 119 | 0.0 | 3.2 | 0.00 | 0.00 | 0.00 | 34 | 1010.6 |
| 20260506132238 | 21 | 273 | 1.6 | 6.4 | 0.00 | 0.00 | 0.00 | 32 | 1010.7 |
| 20260506131720 | 21 | 192 | 1.6 | 8.0 | 0.00 | 0.00 | 0.00 | 34 | 1010.7 |
| 20260506131245 | 21 | 229 | 0.0 | 8.0 | 0.00 | 0.00 | 0.00 | 32 | 1010.7 |
| 20260506130718 | 21 | 163 | 0.0 | 9.7 | 0.00 | 0.00 | 0.00 | 35 | 1010.7 |
| 20260506130248 | 21 | 178 | 0.0 | 9.7 | 0.00 | 0.00 | 0.00 | 34 | 1010.8 |
| 20260506125732 | 21 | 181 | 1.6 | 9.7 | 0.00 | 0.00 | 0.00 | 33 | 1010.8 |
| 20260506125218 | 21 | 192 | 1.6 | 6.4 | 0.00 | 0.00 | 0.00 | 35 | 1010.9 |
| 20260506124744 | 20 | 213 | 1.6 | 4.8 | 0.00 | 0.00 | 0.00 | 35 | 1010.9 |
| 20260506124224 | 20 | 351 | 0.0 | 4.8 | 0.00 | 0.00 | 0.00 | 36 | 1010.9 |
| 20260506123727 | 20 | 50 | 0.0 | 6.4 | 0.00 | 0.00 | 0.00 | 36 | 1011.0 |